Regional Weather Roundup
Issued by NWS

Home | Current Version | Previous Version | Text Only | Print | Product List | Glossary On
Versions: 1 2 3 4 5 6 7 8 9 10 11 12 13 14 15 16 17 18 19 20 21 22 23 24 25 26 27 28 29 30 31 32 33 34 35 36 37 38 39 40 41 42 43 44 45 46 47 48 49 50
000
ASUS43 KLMK 170110
RWRKY
KENTUCKY REGIONAL WEATHER ROUNDUP
NATIONAL WEATHER SERVICE LOUISVILLE KY
900 PM EDT TUE SEP 16 2014

NOTE "FAIR" INDICATES FEW OR NO CLOUDS BELOW 12,000 FEET
WITH NO SIGNIFICANT WEATHER AND/OR OBSTRUCTIONS TO VISIBILITY.

KYZ001>023-026-027-061>063-070>075-170200-
WESTERN AND SOUTH CENTRAL KENTUCKY

CITY           SKY/WX    TMP DP  RH WIND       PRES   REMARKS
PADUCAH        CLEAR     60  52  74 N6        30.09R
HENDERSON      CLEAR     57  52  82 N6        30.10S
OWENSBORO      CLEAR     61  54  77 N6        30.10R
HOPKINSVILLE   CLEAR     62  54  75 N6        30.07R
BOWLING GREEN  CLOUDY    65  53  65 N3        30.07R
GLASGOW        CLEAR     59  53  79 CALM      30.06R
$$

KYZ024-025-028>034-038-045-046-053-170200-
NORTH CENTRAL KENTUCKY

CITY           SKY/WX    TMP DP  RH WIND       PRES   REMARKS
LOUISVILLE/SDF MOCLDY    60  53  77 N9        30.10R
LOUISVILLE/LOU CLEAR     59  52  77 N5        30.11R
FORT KNOX      CLEAR     56  53  90 N5        30.08S
$$

KYZ035>037-039>044-047>052-055>060-089>105-170200-
NORTHEAST KENTUCKY

CITY           SKY/WX    TMP DP  RH WIND       PRES   REMARKS
LEXINGTON      CLEAR     58  53  84 NE7       30.09S
COVINGTON      CLOUDY    59  51  75 CALM      30.11S
FRANKFORT      CLEAR     57  53  86 N3        30.09R
$$

KYZ054-064>069-076>088-106>120-170200-
SOUTHEAST KENTUCKY

CITY           SKY/WX    TMP DP  RH WIND       PRES   REMARKS
JACKSON        MOCLDY    57  55  93 CALM      30.08S
LONDON         MOCLDY    61  56  83 NE6       30.08R
SOMERSET       NOT AVBL
MIDDLESBORO    CLOUDY    66  59  79 CALM      30.06R
MONTICELLO     PTCLDY    61  59  93 CALM      30.08R
$$




USA.gov is the U.S. government's official web portal to all federal, state and local government web resources and services.